Weather History for KVBT - May, 2013

Change the Weather History Date:

Thursday, May 2, 2013

  Actual Average (KFYV) Record (KFYV)
Temperature  
Mean Temperature 48 °F 62 °F  
Max Temperature 62 °F 73 °F 86 °F (1955)
Min Temperature 33 °F 50 °F 33 °F (1970)
Degree Days  
Heating Degree Days 18 5  
Month to date heating degree days 10  
Since 1 July heating degree days 4108  
Cooling Degree Days 0 1  
Month to date cooling degree days 2  
Year to date cooling degree days 30  
Moisture  
Dew Point 43 °F    
Average Humidity 81    
Maximum Humidity 88    
Minimum Humidity 72    
Precipitation  
Precipitation 0.32 in 0.19 in 2.00 in (1954)
Month to date precipitation 0.39  
Year to date precipitation 14.56  
Sea Level Pressure  
Sea Level Pressure 30.18 in    
Wind  
Wind Speed 8 mph (NNW)    
Max Wind Speed 16 mph    
Max Gust Speed 24 mph    
Visibility 9 miles    
Events      
T = Trace of Precipitation, MM = Missing Value Source: NWS Daily Summary

Daily Weather History Graph

Daily Weather History Graph

Search for Another Location

Airport or City:

Trip Planner

Search our weather history database for the weather conditions in past years. The results will help you decide how hot, cold, wet, or windy it might be!

Date:

Astronomy

May. 02, 2013 Rise Set
Actual Time 6:22 AM CDT 8:05 PM CDT
Civil Twilight 5:54 AM CDT 8:33 PM CDT
Nautical Twilight 5:21 AM CDT 9:07 PM CDT
Astronomical Twilight 4:45 AM CDT 9:42 PM CDT
Moon 1:57 AM CDT (5/2) 1:08 PM CDT (5/2)
Length of Visible Light 14h 38m
Length of Day
13h 43m
Waning Gibbous, 47% of the Moon is Illuminated
May 2
Waning Gibbous
May 9
New
May 17
First Quarter
May 24
Full
May 31
Last Quarter

Hourly Weather History & Observations

Time (CDT) Temp. Windchill Dew Point Humidity Pressure Visibility Wind Dir Wind Speed Gust Speed Precip Events Conditions
12:15 AM 62.6 °F - 53.6 °F 72% 30.06 in 10.0 mi Calm Calm - N/A   Clear
12:35 AM 60.8 °F - 53.6 °F 77% 30.06 in 10.0 mi SSE 3.5 mph - N/A   Clear
12:55 AM 60.8 °F - 53.6 °F 77% 30.05 in 10.0 mi SSE 4.6 mph - N/A   Clear
1:15 AM 59.0 °F - 53.6 °F 82% 30.05 in 10.0 mi SSE 5.8 mph - N/A   Clear
1:35 AM 60.8 °F - 55.4 °F 82% 30.05 in 10.0 mi SSE 6.9 mph - N/A   Clear
1:55 AM 59.0 °F - 53.6 °F 82% 30.05 in 10.0 mi SSE 4.6 mph - N/A   Clear
2:15 AM 60.8 °F - 55.4 °F 82% 30.05 in 10.0 mi Calm Calm - N/A   Clear
2:35 AM 60.8 °F - 55.4 °F 82% 30.07 in 10.0 mi NW 9.2 mph - N/A   Clear
2:55 AM 60.8 °F - 53.6 °F 77% 30.07 in 10.0 mi Calm Calm - N/A   Clear
3:15 AM 59.0 °F - 53.6 °F 82% 30.09 in 10.0 mi WNW 5.8 mph - N/A   Partly Cloudy
3:35 AM 60.8 °F - 55.4 °F 82% 30.09 in 10.0 mi NW 3.5 mph - N/A   Mostly Cloudy
3:55 AM 60.8 °F - 55.4 °F 82% 30.09 in 10.0 mi WNW 3.5 mph - N/A   Mostly Cloudy
4:15 AM 60.8 °F - 55.4 °F 82% 30.09 in 10.0 mi NNW 5.8 mph - N/A   Overcast
4:35 AM 60.8 °F - 55.4 °F 82% 30.09 in 10.0 mi North 10.4 mph - N/A   Overcast
4:55 AM 60.8 °F - 55.4 °F 82% 30.10 in 10.0 mi North 9.2 mph - N/A   Overcast
5:15 AM 59.0 °F - 55.4 °F 88% 30.11 in 10.0 mi NNW 8.1 mph - N/A   Overcast
5:35 AM 57.2 °F - 53.6 °F 88% 30.11 in 10.0 mi NNW 11.5 mph - N/A   Overcast
5:55 AM 57.2 °F - 51.8 °F 82% 30.13 in 10.0 mi NNW 12.7 mph - N/A   Overcast
6:15 AM 53.6 °F - 46.4 °F 77% 30.13 in 10.0 mi North 13.8 mph - N/A   Overcast
6:35 AM 51.8 °F - 44.6 °F 76% 30.14 in 10.0 mi North 11.5 mph - N/A   Overcast
6:55 AM 51.8 °F - 44.6 °F 76% 30.15 in 10.0 mi North 11.5 mph - N/A   Overcast
7:15 AM 50.0 °F - 44.6 °F 82% 30.16 in 10.0 mi North 13.8 mph - N/A   Mostly Cloudy
7:35 AM 50.0 °F - 42.8 °F 76% 30.16 in 10.0 mi North 10.4 mph 18.4 mph N/A   Overcast
7:55 AM 50.0 °F - 42.8 °F 76% 30.17 in 10.0 mi North 10.4 mph - N/A   Overcast
8:15 AM 50.0 °F - 42.8 °F 76% 30.18 in 10.0 mi North 9.2 mph - N/A   Overcast
8:35 AM 50.0 °F - 42.8 °F 76% 30.18 in 10.0 mi North 9.2 mph - N/A   Overcast
8:55 AM 50.0 °F - 42.8 °F 76% 30.18 in 10.0 mi North 9.2 mph - N/A   Overcast
9:15 AM 50.0 °F - 42.8 °F 76% 30.18 in 10.0 mi NNW 8.1 mph - N/A   Overcast
9:35 AM 50.0 °F - 42.8 °F 76% 30.20 in 10.0 mi NW 9.2 mph - N/A   Overcast
9:55 AM 48.2 °F - 42.8 °F 82% 30.20 in 10.0 mi North 11.5 mph - N/A   Overcast
10:15 AM 48.2 °F - 42.8 °F 82% 30.20 in 10.0 mi NNW 10.4 mph - N/A   Overcast
10:35 AM 48.2 °F - 42.8 °F 82% 30.21 in 10.0 mi North 13.8 mph 20.7 mph N/A   Overcast
10:55 AM 48.2 °F - 41.0 °F 76% 30.22 in 10.0 mi North 13.8 mph - N/A   Overcast
11:15 AM 48.2 °F - 41.0 °F 76% 30.21 in 10.0 mi North 12.7 mph 17.3 mph N/A   Overcast
11:35 AM 48.2 °F - 41.0 °F 76% 30.21 in 10.0 mi North 12.7 mph - N/A   Overcast
11:55 AM 48.2 °F - 41.0 °F 76% 30.21 in 10.0 mi North 12.7 mph - N/A   Overcast
12:15 PM 48.2 °F - 42.8 °F 82% 30.20 in 10.0 mi North 15.0 mph - N/A   Overcast
12:35 PM 48.2 °F - 41.0 °F 76% 30.20 in 10.0 mi North 13.8 mph 18.4 mph N/A   Overcast
12:55 PM 48.2 °F - 41.0 °F 76% 30.20 in 10.0 mi North 11.5 mph - N/A   Overcast
1:15 PM 48.2 °F - 41.0 °F 76% 30.21 in 10.0 mi North 9.2 mph - N/A   Overcast
1:35 PM 48.2 °F - 41.0 °F 76% 30.21 in 10.0 mi North 10.4 mph - N/A   Overcast
1:55 PM 48.2 °F - 41.0 °F 76% 30.21 in 10.0 mi North 10.4 mph - N/A   Overcast
2:15 PM 48.2 °F - 41.0 °F 76% 30.22 in 10.0 mi NNW 12.7 mph - N/A   Overcast
2:35 PM 46.4 °F 41.1 °F 41.0 °F 81% 30.22 in 10.0 mi North 11.5 mph - N/A   Overcast
2:55 PM 46.4 °F 42.9 °F 41.0 °F 81% 30.22 in 10.0 mi NNW 6.9 mph - N/A   Overcast
3:15 PM 46.4 °F 41.1 °F 39.2 °F 76% 30.22 in 10.0 mi NNW 11.5 mph 16.1 mph N/A   Overcast
3:35 PM 46.4 °F 39.8 °F 39.2 °F 76% 30.21 in 10.0 mi North 16.1 mph 19.6 mph N/A   Overcast
3:55 PM 46.4 °F 40.7 °F 39.2 °F 76% 30.20 in 10.0 mi North 12.7 mph - N/A   Overcast
4:15 PM 46.4 °F 40.4 °F 39.2 °F 76% 30.20 in 10.0 mi North 13.8 mph 20.7 mph N/A   Overcast
4:35 PM 44.6 °F 39.2 °F 39.2 °F 81% 30.20 in 10.0 mi North 10.4 mph 18.4 mph N/A   Overcast
4:55 PM 44.6 °F 37.8 °F 39.2 °F 81% 30.20 in 10.0 mi North 15.0 mph 23.0 mph N/A   Overcast
5:15 PM 42.8 °F 35.4 °F 37.4 °F 81% 30.21 in 10.0 mi North 15.0 mph - N/A   Overcast
5:35 PM 42.8 °F 37.0 °F 37.4 °F 81% 30.20 in 8.0 mi North 10.4 mph 16.1 mph N/A   Overcast
5:55 PM 42.8 °F 37.0 °F 37.4 °F 81% 30.21 in 3.0 mi NNW 10.4 mph 18.4 mph 0.01 in   Overcast
6:15 PM 41.0 °F 32.8 °F 37.4 °F 87% 30.21 in 3.0 mi North 16.1 mph 24.2 mph N/A   Overcast
6:35 PM 41.0 °F 33.5 °F 37.4 °F 87% 30.22 in 2.5 mi NNW 13.8 mph 18.4 mph 0.01 in   Overcast
6:55 PM 41.0 °F 33.5 °F 35.6 °F 81% 30.22 in 3.0 mi North 13.8 mph 20.7 mph 0.01 in   Overcast
7:15 PM 41.0 °F 34.3 °F 37.4 °F 87% 30.22 in 5.0 mi North 11.5 mph 17.3 mph N/A   Overcast
7:35 PM 39.2 °F 31.2 °F 35.6 °F 87% 30.22 in 3.0 mi North 13.8 mph 24.2 mph 0.01 in   Overcast
7:55 PM 39.2 °F 30.5 °F 35.6 °F 87% 30.23 in 3.0 mi North 16.1 mph 21.9 mph 0.04 in   Overcast
8:15 PM 39.2 °F 32.5 °F 35.6 °F 87% 30.24 in 5.0 mi North 10.4 mph 19.6 mph N/A   Overcast
8:35 PM 37.4 °F 28.9 °F 33.8 °F 87% 30.24 in 8.0 mi North 13.8 mph 24.2 mph N/A   Overcast
8:55 PM 37.4 °F 28.9 °F 33.8 °F 87% 30.24 in 5.0 mi North 13.8 mph 24.2 mph 0.01 in   Overcast
9:15 PM 37.4 °F 30.3 °F 33.8 °F 87% 30.24 in 5.0 mi NNW 10.4 mph 19.6 mph N/A   Overcast
9:35 PM 37.4 °F 28.9 °F 33.8 °F 87% 30.24 in 5.0 mi North 13.8 mph 20.7 mph 0.05 in   Overcast
9:55 PM 35.6 °F 28.0 °F 32.0 °F 87% 30.24 in 5.0 mi North 10.4 mph - 0.09 in   Overcast
10:15 PM 35.6 °F 27.5 °F 32.0 °F 87% 30.24 in 8.0 mi North 11.5 mph 18.4 mph 0.02 in   Overcast
10:35 PM 35.6 °F 26.6 °F 32.0 °F 87% 30.25 in 10.0 mi NNW 13.8 mph 18.4 mph 0.03 in   Overcast
10:55 PM 35.6 °F 25.9 °F 32.0 °F 87% 30.24 in 5.0 mi North 16.1 mph 20.7 mph 0.06 in   Overcast
11:15 PM 35.6 °F 28.6 °F 30.2 °F 81% 30.25 in 4.0 mi NNW 9.2 mph 16.1 mph 0.03 in   Overcast
11:35 PM 33.8 °F 25.8 °F 30.2 °F 87% 30.24 in 3.0 mi NNW 10.4 mph 17.3 mph 0.05 in   Overcast
11:55 PM 33.8 °F 24.8 °F 30.2 °F 87% 30.22 in 3.0 mi North 12.7 mph 23.0 mph 0.10 in   Overcast